VK4AB-13 Weather Reports


Display with metric or nautical units.
time (UTC)temp
F
wind
direction
speed
MPH
gust
MPH
rain 1hr
in
rain 24hr
in
rain mn
in
humidity
%
barometer
mb
20260505093847 73 126 2.0 5.0 0.00 0.01 0.01 80 1016.2
20260505093347 73 127 2.0 4.0 0.00 0.01 0.01 80 1016.2
20260505093038 73 127 2.0 4.0 0.00 0.01 0.01 80 1016.3
20260505092847 73 127 2.0 4.0 0.00 0.01 0.01 80 1016.3
20260505092347 73 127 1.0 4.0 0.00 0.01 0.01 80 1016.4
20260505092142 73 127 2.0 4.0 0.00 0.01 0.01 79 1016.3
20260505091847 73 127 2.0 4.0 0.00 0.01 0.01 79 1016.3
20260505091540 73 128 1.0 4.0 0.00 0.01 0.01 79 1016.2
20260505091347 73 127 2.0 5.0 0.00 0.01 0.01 79 1016.3
20260505090847 73 128 1.0 4.0 0.00 0.01 0.01 79 1016.2
20260505090438 73 128 1.0 4.0 0.00 0.01 0.01 78 1016.1
20260505090347 73 128 1.0 3.0 0.00 0.01 0.01 78 1016.1
20260505085847 73 128 1.0 4.0 0.00 0.01 0.01 78 1016.1
20260505085347 73 128 1.0 2.0 0.00 0.01 0.01 77 1016.0
20260505084847 74 128 1.0 4.0 0.00 0.01 0.01 77 1015.9
20260505084347 74 128 1.0 3.0 0.00 0.01 0.01 76 1015.8
20260505083847 74 128 2.0 4.0 0.00 0.01 0.01 76 1015.8
20260505083347 74 128 2.0 5.0 0.00 0.01 0.01 76 1015.8
20260505082940 74 130 2.0 7.0 0.00 0.01 0.01 76 1015.5
20260505082847 74 130 2.0 7.0 0.00 0.01 0.01 76 1015.5
20260505082653 74 130 1.0 5.0 0.00 0.01 0.01 75 1015.4
20260505082347 74 130 1.0 5.0 0.00 0.01 0.01 75 1015.4
20260505081847 74 62 1.0 4.0 0.00 0.01 0.01 75 1015.5
20260505081347 75 62 1.0 3.0 0.00 0.01 0.01 74 1015.3
20260505081041 75 62 1.0 4.0 0.00 0.01 0.01 74 1015.2
20260505080847 75 62 1.0 4.0 0.00 0.01 0.01 74 1015.2
20260505080347 75 61 1.0 3.0 0.00 0.01 0.01 74 1015.0
20260505080254 75 61 1.0 3.0 0.00 0.01 0.01 73 1014.9
20260505075847 75 61 1.0 3.0 0.00 0.01 0.01 73 1014.9
20260505075347 75 61 1.0 4.0 0.00 0.01 0.01 73 1015.0
20260505074847 76 60 1.0 3.0 0.00 0.01 0.01 72 1015.1
20260505074347 76 60 1.0 5.0 0.00 0.01 0.01 72 1014.9
20260505073847 76 60 1.0 5.0 0.00 0.01 0.01 72 1014.9
20260505073347 76 59 2.0 4.0 0.00 0.01 0.01 71 1014.9
20260505072847 77 59 1.0 3.0 0.00 0.01 0.01 71 1014.8
20260505072735 77 59 2.0 3.0 0.00 0.01 0.01 70 1014.6
20260505072347 77 59 1.0 5.0 0.00 0.01 0.01 70 1014.7
20260505071847 77 59 2.0 3.0 0.00 0.01 0.01 70 1014.6
20260505071347 78 59 2.0 7.0 0.00 0.01 0.01 69 1014.4
20260505070847 78 65 2.0 8.0 0.00 0.01 0.01 68 1014.5
20260505070347 78 103 2.0 7.0 0.00 0.01 0.01 67 1014.6
20260505065847 79 108 1.0 6.0 0.00 0.01 0.01 64 1014.5
20260505065636 80 67 2.0 4.0 0.00 0.01 0.01 63 1014.4
20260505065347 79 61 0.0 0.0 0.00 0.01 0.01 63 1014.5
20260505064847 79 66 1.0 3.0 0.00 0.01 0.01 63 1014.3
20260505064347 80 67 2.0 4.0 0.00 0.01 0.01 63 1014.4
20260505063847 80 67 1.0 4.0 0.00 0.01 0.01 63 1014.4
20260505063448 80 67 2.0 4.0 0.00 0.01 0.01 62 1014.3
20260505063347 80 67 2.0 4.0 0.00 0.01 0.01 62 1014.3
20260505062847 80 67 2.0 5.0 0.00 0.01 0.01 62 1014.2
20260505062347 81 67 1.0 3.0 0.00 0.01 0.01 62 1014.4
20260505062045 81 67 2.0 3.0 0.00 0.01 0.01 61 1014.4
20260505061847 81 67 2.0 3.0 0.00 0.01 0.01 61 1014.4
20260505061347 81 67 3.0 7.0 0.00 0.01 0.01 61 1014.2
20260505060847 81 101 2.0 6.0 0.00 0.01 0.01 60 1014.2
20260505060347 81 104 2.0 4.0 0.00 0.01 0.01 59 1014.0
20260505055942 81 104 2.0 4.0 0.00 0.01 0.01 57 1014.1
20260505055847 81 104 2.0 4.0 0.00 0.01 0.01 57 1014.1
20260505055347 82 104 2.0 6.0 0.00 0.01 0.01 56 1014.1
20260505054847 82 103 1.0 4.0 0.00 0.01 0.01 56 1014.2
20260505054347 82 105 2.0 3.0 0.00 0.01 0.01 56 1014.1
20260505053936 82 105 1.0 6.0 0.00 0.01 0.01 56 1014.1
20260505053847 82 105 1.0 6.0 0.00 0.01 0.01 56 1014.1
20260505053347 82 107 1.0 3.0 0.00 0.01 0.01 56 1014.2
20260505052847 83 107 1.0 3.0 0.00 0.01 0.01 55 1014.1
20260505052347 83 107 1.0 4.0 0.00 0.01 0.01 55 1013.9
20260505051847 83 107 1.0 4.0 0.00 0.01 0.01 54 1013.9
20260505051347 83 107 1.0 2.0 0.00 0.01 0.01 55 1013.9
20260505050847 83 107 1.0 4.0 0.00 0.01 0.01 54 1014.1
20260505050347 83 109 1.0 4.0 0.00 0.01 0.01 54 1014.1
20260505041347 83 111 2.0 4.0 0.00 0.01 0.01 57 1014.0
20260505041036 83 111 2.0 6.0 0.00 0.01 0.01 57 1013.9
20260505040847 83 111 2.0 6.0 0.00 0.01 0.01 57 1013.9
20260505040347 83 116 3.0 4.0 0.00 0.01 0.01 57 1013.9
20260505040035 83 74 2.0 5.0 0.00 0.01 0.01 57 1013.9
20260505035847 83 118 2.0 7.0 0.00 0.01 0.01 57 1013.8
20260505035347 83 117 2.0 6.0 0.00 0.01 0.01 57 1013.8
20260505034847 83 74 2.0 5.0 0.00 0.01 0.01 57 1013.9
20260505034546 83 124 3.0 9.0 0.00 0.01 0.01 57 1013.9
20260505034347 83 124 3.0 9.0 0.00 0.01 0.01 57 1013.9
20260505033847 84 118 3.0 6.0 0.00 0.01 0.01 57 1013.8
20260505033835 84 117 3.0 8.0 0.00 0.01 0.01 56 1013.9
20260505033347 84 117 3.0 8.0 0.00 0.01 0.01 56 1013.9
20260505032847 84 33 3.0 5.0 0.00 0.01 0.01 56 1013.9
20260505032635 85 72 2.0 5.0 0.00 0.01 0.01 55 1013.9
20260505032347 85 72 2.0 5.0 0.00 0.01 0.01 55 1013.9
20260505032135 85 279 1.0 4.0 0.00 0.01 0.01 55 1013.7
20260505031847 85 279 1.0 4.0 0.00 0.01 0.01 55 1013.7
20260505031347 84 279 1.0 6.0 0.00 0.01 0.01 55 1013.9
20260505031040 85 281 0.0 3.0 0.00 0.01 0.01 54 1014.2
20260505030847 85 279 1.0 4.0 0.00 0.01 0.01 54 1014.0
20260505030347 85 281 0.0 3.0 0.00 0.01 0.01 54 1014.2
20260505025847 85 281 1.0 3.0 0.00 0.01 0.01 54 1014.4
20260505025347 85 281 2.0 4.0 0.00 0.01 0.01 54 1014.2
20260505024847 85 280 3.0 7.0 0.00 0.01 0.01 55 1014.2
20260505024347 84 196 2.0 6.0 0.00 0.01 0.01 57 1014.3
20260505023847 84 180 3.0 7.0 0.00 0.01 0.01 56 1014.4
20260505023347 84 271 2.0 7.0 0.00 0.01 0.01 57 1014.6
20260505022847 83 168 2.0 5.0 0.00 0.01 0.01 57 1014.9
20260505022347 83 157 3.0 5.0 0.00 0.01 0.01 57 1014.8
20260505021847 83 152 2.0 8.0 0.00 0.01 0.01 57 1014.8
20260505021347 84 232 1.0 4.0 0.00 0.01 0.01 57 1015.0
20260505020847 84 232 1.0 3.0 0.00 0.01 0.01 56 1015.1
20260505020347 83 232 1.0 3.0 0.00 0.01 0.01 59 1015.2
20260505015847 82 231 1.0 3.0 0.00 0.01 0.01 59 1015.3
20260505015347 82 310 1.0 3.0 0.00 0.01 0.01 59 1015.4
20260505014847 83 310 2.0 3.0 0.00 0.01 0.01 59 1015.5
20260505014347 82 310 2.0 8.0 0.00 0.01 0.01 62 1015.6
20260505013847 82 223 1.0 3.0 0.00 0.01 0.01 64 1015.7
20260505013347 81 223 2.0 5.0 0.00 0.01 0.01 63 1015.8
20260505012847 80 223 1.0 4.0 0.00 0.01 0.01 65 1015.9
20260505012347 79 221 1.0 3.0 0.00 0.01 0.01 66 1016.0
20260505011847 79 221 1.0 4.0 0.00 0.01 0.01 66 1016.0
20260505011347 79 217 1.0 3.0 0.00 0.01 0.01 68 1016.1
20260505010847 78 223 0.0 3.0 0.00 0.01 0.01 70 1016.2
20260505010347 78 223 0.0 0.0 0.00 0.01 0.01 70 1016.4
20260505005847 78 223 1.0 2.0 0.00 0.01 0.01 70 1016.5
20260505005347 78 223 1.0 3.0 0.00 0.01 0.01 71 1016.6
20260505004847 77 223 1.0 2.0 0.00 0.01 0.01 70 1016.6
20260505004347 78 223 2.0 5.0 0.00 0.01 0.01 70 1016.8
20260505003847 78 222 1.0 3.0 0.00 0.01 0.01 70 1016.9
20260505003347 78 222 1.0 2.0 0.00 0.01 0.01 70 1016.9
20260505002847 78 222 1.0 4.0 0.00 0.01 0.01 70 1017.0
20260505002347 78 222 1.0 4.0 0.00 0.01 0.01 71 1017.0
20260505001847 77 222 1.0 2.0 0.00 0.01 0.01 72 1017.1
20260505001347 77 222 1.0 3.0 0.00 0.01 0.01 72 1017.1
20260505000847 77 222 2.0 4.0 0.00 0.01 0.01 73 1017.1
20260505000347 77 222 2.0 5.0 0.00 0.01 0.01 73 1017.1
20260504235847 77 220 2.0 4.0 0.00 0.01 0.01 74 1017.1
20260504235347 77 221 2.0 4.0 0.00 0.01 0.01 74 1017.2
20260504234847 77 222 2.0 4.0 0.00 0.01 0.01 74 1017.3
20260504234347 77 221 2.0 7.0 0.00 0.01 0.01 76 1017.4
20260504233847 76 96 2.0 4.0 0.00 0.01 0.01 76 1017.5
20260504233347 75 91 2.0 4.0 0.00 0.01 0.01 79 1017.5
20260504232847 75 90 1.0 4.0 0.00 0.01 0.01 81 1017.4
20260504232347 74 90 1.0 3.0 0.00 0.01 0.01 83 1017.5
20260504231847 73 90 1.0 4.0 0.00 0.01 0.01 84 1017.5
20260504231347 73 90 1.0 3.0 0.00 0.01 0.01 86 1017.5
20260504230847 72 90 2.0 3.0 0.00 0.01 0.01 88 1017.6
20260504230347 71 90 1.0 4.0 0.00 0.01 0.01 89 1017.6
20260504225847 71 90 1.0 0.0 0.00 0.01 0.01 91 1017.6
20260504225347 70 90 2.0 4.0 0.00 0.01 0.01 92 1017.6
20260504224847 70 90 2.0 3.0 0.00 0.01 0.01 93 1017.6
20260504224347 69 90 1.0 4.0 0.00 0.01 0.01 94 1017.6
20260504223847 69 90 1.0 3.0 0.00 0.01 0.01 94 1017.7
20260504223546 69 90 1.0 3.0 0.00 0.01 0.01 95 1017.7
20260504223347 69 90 1.0 3.0 0.00 0.01 0.01 95 1017.7
20260504222847 68 90 1.0 2.0 0.00 0.01 0.01 95 1017.6
20260504222348 68 86 1.0 2.0 0.00 0.01 0.01 95 1017.7
20260504221847 67 90 1.0 2.0 0.00 0.01 0.01 95 1017.7
20260504221348 67 90 1.0 2.0 0.00 0.01 0.01 95 1017.6
20260504220848 67 90 2.0 4.0 0.00 0.01 0.01 95 1017.7
20260504220348 67 90 1.0 4.0 0.00 0.01 0.01 95 1017.7
20260504215848 67 95 1.0 4.0 0.01 0.01 0.01 96 1017.7
20260504215348 67 95 1.0 4.0 0.01 0.01 0.01 96 1017.6
20260504214848 67 92 1.0 2.0 0.01 0.01 0.01 96 1017.5
20260504214348 66 96 1.0 2.0 0.01 0.01 0.01 96 1017.4
20260504213848 66 96 0.0 2.0 0.01 0.01 0.01 97 1017.5
20260504213348 65 96 0.0 0.0 0.01 0.01 0.01 97 1017.4
20260504212848 65 96 0.0 1.0 0.01 0.01 0.01 96 1017.3
20260504212348 64 96 0.0 1.0 0.01 0.01 0.01 96 1017.3
20260504211848 64 96 0.0 0.0 0.01 0.01 0.01 96 1017.3
20260504211838 63 96 0.0 0.0 0.01 0.01 0.01 95 1017.2
20260504211348 64 96 0.0 0.0 0.01 0.01 0.01 95 1017.3
20260504210848 63 96 0.0 0.0 0.01 0.01 0.01 95 1017.2
20260504210348 63 96 0.0 0.0 0.01 0.01 0.01 95 1017.2
20260504210038 63 96 0.0 0.0 0.00 0.00 0.00 95 1017.1
20260504205848 63 96 0.0 0.0 0.00 0.00 0.00 95 1017.2
20260504205348 63 96 0.0 0.0 0.00 0.00 0.00 95 1017.1
20260504204848 63 96 0.0 0.0 0.00 0.00 0.00 95 1017.0
20260504204348 63 96 0.0 0.0 0.00 0.00 0.00 95 1017.0
20260504204335 63 96 0.0 0.0 0.00 0.00 0.00 94 1016.9
20260504203848 63 96 0.0 0.0 0.00 0.00 0.00 94 1016.9
20260504203348 63 96 0.0 0.0 0.00 0.00 0.00 94 1016.9
20260504202848 63 96 0.0 0.0 0.00 0.00 0.00 94 1017.0
20260504202348 63 96 0.0 0.0 0.00 0.00 0.00 94 1016.8
20260504201848 63 96 0.0 0.0 0.00 0.00 0.00 94 1016.9
20260504201634 63 96 0.0 0.0 0.00 0.00 0.00 94 1016.8
20260504201348 63 96 0.0 0.0 0.00 0.00 0.00 94 1016.8
20260504201138 63 96 0.0 0.0 0.00 0.00 0.00 94 1016.9
20260504200848 63 96 0.0 0.0 0.00 0.00 0.00 94 1016.9
20260504200348 63 96 0.0 0.0 0.00 0.00 0.00 94 1016.8
20260504195848 63 96 0.0 0.0 0.00 0.00 0.00 94 1016.7
20260504195535 62 96 0.0 0.0 0.00 0.00 0.00 94 1016.6
20260504195348 63 96 0.0 0.0 0.00 0.00 0.00 94 1016.8
20260504194848 63 96 0.0 0.0 0.00 0.00 0.00 94 1016.7
20260504194348 62 96 0.0 0.0 0.00 0.00 0.00 94 1016.6
20260504193848 62 96 0.0 0.0 0.00 0.00 0.00 94 1016.5
20260504193640 63 96 0.0 0.0 0.00 0.00 0.00 94 1016.4
20260504193348 62 96 0.0 0.0 0.00 0.00 0.00 94 1016.3
20260504192848 63 96 0.0 0.0 0.00 0.00 0.00 94 1016.4
20260504192535 63 96 0.0 0.0 0.00 0.00 0.00 94 1016.2
20260504192348 63 96 0.0 0.0 0.00 0.00 0.00 94 1016.2
20260504191848 63 96 0.0 0.0 0.00 0.00 0.00 94 1016.2
20260504191348 63 96 0.0 0.0 0.00 0.00 0.00 94 1016.2
20260504190848 63 96 0.0 0.0 0.00 0.00 0.00 94 1016.1
20260504190348 63 96 0.0 0.0 0.00 0.00 0.00 94 1016.1
20260504185848 63 96 0.0 0.0 0.00 0.00 0.00 94 1016.1
20260504185348 63 96 0.0 0.0 0.00 0.00 0.00 94 1016.0
20260504184944 63 96 0.0 0.0 0.00 0.00 0.00 94 1016.0
20260504184848 63 96 0.0 0.0 0.00 0.00 0.00 94 1016.0
20260504184643 63 96 0.0 0.0 0.00 0.00 0.00 94 1016.0
20260504184348 63 96 0.0 0.0 0.00 0.00 0.00 94 1016.0
20260504183848 63 96 0.0 0.0 0.00 0.00 0.00 94 1016.0
20260504183443 63 96 0.0 0.0 0.00 0.00 0.00 94 1016.0
20260504183348 63 96 0.0 0.0 0.00 0.00 0.00 94 1016.0
20260504182848 63 96 0.0 0.0 0.00 0.00 0.00 93 1016.0
20260504182550 63 96 0.0 0.0 0.00 0.00 0.00 93 1015.8
20260504182348 63 96 0.0 0.0 0.00 0.00 0.00 93 1016.0
20260504181848 63 96 0.0 0.0 0.00 0.00 0.00 93 1015.9
20260504181348 63 96 0.0 0.0 0.00 0.00 0.00 93 1015.8
20260504180848 63 96 0.0 0.0 0.00 0.00 0.00 93 1015.9
20260504180348 63 96 0.0 0.0 0.00 0.00 0.00 93 1015.8
20260504175848 63 96 0.0 0.0 0.00 0.00 0.00 92 1015.8
20260504175348 63 96 0.0 0.0 0.00 0.00 0.00 93 1015.8
20260504174848 63 96 0.0 0.0 0.00 0.00 0.00 93 1015.8
20260504174348 64 96 0.0 0.0 0.00 0.00 0.00 93 1015.7
20260504174201 64 96 0.0 0.0 0.00 0.00 0.00 93 1015.7
20260504173848 64 96 0.0 0.0 0.00 0.00 0.00 93 1015.7
20260504173348 64 96 0.0 0.0 0.00 0.00 0.00 93 1015.7
20260504172848 64 96 0.0 0.0 0.00 0.00 0.00 93 1015.7
20260504172759 64 96 0.0 0.0 0.00 0.00 0.00 93 1015.7
20260504172348 64 96 0.0 0.0 0.00 0.00 0.00 93 1015.7
20260504171848 64 96 0.0 0.0 0.00 0.00 0.00 93 1015.7
20260504171348 64 96 0.0 0.0 0.00 0.00 0.00 93 1015.8
20260504170848 64 96 0.0 0.0 0.00 0.00 0.00 93 1015.7
20260504170348 64 96 0.0 0.0 0.00 0.00 0.00 93 1015.9
20260504160348 65 96 0.0 1.0 0.00 0.00 0.00 93 1016.1
20260504150848 65 96 0.0 0.0 0.00 0.00 0.00 93 1016.4
20260504150348 65 96 0.0 1.0 0.00 0.00 0.00 93 1016.4
20260504140848 66 96 0.0 0.0 0.00 0.00 0.00 91 1016.9
20260504140552 66 96 0.0 0.0 0.00 0.00 0.00 91 1016.8
20260504140348 66 96 0.0 0.0 0.00 0.00 0.00 91 1016.8
20260504130348 66 96 0.0 0.0 0.00 0.00 0.00 90 1017.4
20260504110348 69 96 0.0 0.0 0.00 0.00 0.00 87 1017.7
20260504100349 71 96 0.0 1.0 0.00 0.00 0.00 84 1017.6